Station Historical Data
Daily Summary for June 11, 2012 Units:  English    Metric   Both
« Previous Day
Next Day »
Daily Weekly Monthly Yearly Custom
  High: Low: Average:
Temperature: 83.8 °F 66.6 °F 73.3 °F
Dew Point: 75.0 °F 64.5 °F 69.5 °F
Humidity: 93% 71% 88%
Wind Speed: 14.0mph 0.0mph 4.3mph
Wind Gust: 38.0mph - -
Wind- - SSW
Pressure: 29.98 in 29.83 in -
Precipitation: 0.14 in    
Historical Graphs
 
 
Tabular Data for June 11, 2012
Time Temperature Dew Point Pressure Wind Wind Speed Wind Gust Humidity Rainfall Rate (Hourly) Conditions
00:00 70.3 °F 68.2 °F 29.90 in SE 3.0 mph 5.0 mph 93% 0.04 in
00:06 70.3 °F 68.2 °F 29.90 in ESE 4.0 mph 4.0 mph 93% 0.00 in
00:11 70.2 °F 68.1 °F 29.90 in SE 3.0 mph 3.0 mph 93% 0.00 in
00:16 70.2 °F 68.1 °F 29.90 in SE 1.0 mph 3.0 mph 93% 0.00 in
00:21 70.2 °F 68.1 °F 29.90 in SE 2.0 mph 3.0 mph 93% 0.00 in
00:26 70.2 °F 68.1 °F 29.90 in SE 4.0 mph 4.0 mph 93% 0.00 in
00:31 70.2 °F 68.1 °F 29.90 in SE 2.0 mph 4.0 mph 93% 0.00 in
00:36 70.1 °F 68.0 °F 29.90 in ESE 2.0 mph 5.0 mph 93% 0.00 in
00:41 70.1 °F 68.0 °F 29.90 in SE 3.0 mph 6.0 mph 93% 0.00 in
00:46 70.1 °F 68.0 °F 29.91 in ESE 3.0 mph 4.0 mph 93% 0.00 in
00:51 70.1 °F 68.0 °F 29.91 in SE 3.0 mph 6.0 mph 93% 0.00 in
00:56 70.0 °F 67.9 °F 29.91 in SSE 4.0 mph 5.0 mph 93% 0.00 in
01:01 70.0 °F 67.9 °F 29.91 in SE 4.0 mph 5.0 mph 93% 0.00 in
01:06 70.0 °F 67.9 °F 29.91 in SE 5.0 mph 7.0 mph 93% 0.00 in
01:11 70.0 °F 67.9 °F 29.91 in SSE 6.0 mph 6.0 mph 93% 0.00 in
01:16 70.0 °F 67.9 °F 29.91 in SSE 6.0 mph 8.0 mph 93% 0.00 in
01:21 70.0 °F 67.9 °F 29.91 in SSE 5.0 mph 6.0 mph 93% 0.00 in
01:26 70.0 °F 67.9 °F 29.91 in South 5.0 mph 6.0 mph 93% 0.00 in
01:31 69.9 °F 67.8 °F 29.91 in SSW 3.0 mph 7.0 mph 93% 0.00 in
01:36 69.9 °F 67.8 °F 29.91 in South 5.0 mph 6.0 mph 93% 0.00 in
01:41 69.9 °F 67.8 °F 29.91 in SSE 5.0 mph 6.0 mph 93% 0.00 in
01:46 69.8 °F 67.7 °F 29.91 in SSE 5.0 mph 9.0 mph 93% 0.00 in
01:51 69.8 °F 67.7 °F 29.91 in SSE 4.0 mph 8.0 mph 93% 0.00 in
01:56 69.7 °F 67.6 °F 29.91 in SSE 3.0 mph 9.0 mph 93% 0.00 in
02:01 69.7 °F 67.6 °F 29.90 in SSE 5.0 mph 9.0 mph 93% 0.00 in
02:06 69.7 °F 67.6 °F 29.91 in South 3.0 mph 7.0 mph 93% 0.00 in
02:11 69.7 °F 67.6 °F 29.91 in SSE 2.0 mph 5.0 mph 93% 0.00 in
02:16 69.7 °F 67.6 °F 29.91 in SSE 5.0 mph 7.0 mph 93% 0.00 in
02:21 69.7 °F 67.6 °F 29.91 in SSW 4.0 mph 7.0 mph 93% 0.00 in
02:26 69.7 °F 67.6 °F 29.90 in South 2.0 mph 5.0 mph 93% 0.00 in
02:31 69.7 °F 67.6 °F 29.90 in SSE 3.0 mph 5.0 mph 93% 0.00 in
02:36 69.7 °F 67.6 °F 29.90 in SSW 2.0 mph 6.0 mph 93% 0.00 in
02:41 69.7 °F 67.6 °F 29.90 in SW 2.0 mph 3.0 mph 93% 0.00 in
02:46 69.7 °F 67.6 °F 29.90 in SSE 2.0 mph 3.0 mph 93% 0.00 in
02:51 69.7 °F 67.6 °F 29.90 in South 6.0 mph 6.0 mph 93% 0.00 in
02:56 69.6 °F 67.5 °F 29.90 in SSE 3.0 mph 7.0 mph 93% 0.00 in
03:01 69.6 °F 67.5 °F 29.90 in SSE 3.0 mph 3.0 mph 93% 0.00 in
03:06 69.6 °F 67.5 °F 29.89 in SSE 3.0 mph 6.0 mph 93% 0.00 in
03:11 69.6 °F 67.5 °F 29.89 in SSW 2.0 mph 4.0 mph 93% 0.00 in
03:16 69.5 °F 67.4 °F 29.90 in South 4.0 mph 5.0 mph 93% 0.00 in
03:21 69.6 °F 67.5 °F 29.90 in SSE 4.0 mph 6.0 mph 93% 0.00 in
03:26 69.6 °F 67.5 °F 29.89 in SE 2.0 mph 4.0 mph 93% 0.00 in
03:31 69.6 °F 67.5 °F 29.89 in SSE 4.0 mph 7.0 mph 93% 0.00 in
03:36 69.6 °F 67.5 °F 29.89 in South 5.0 mph 8.0 mph 93% 0.00 in
03:41 69.6 °F 67.5 °F 29.89 in SSE 4.0 mph 5.0 mph 93% 0.00 in
03:46 69.7 °F 67.6 °F 29.90 in SSW 3.0 mph 8.0 mph 93% 0.00 in
03:51 69.6 °F 67.5 °F 29.90 in SSE 4.0 mph 6.0 mph 93% 0.00 in
03:56 69.7 °F 67.6 °F 29.90 in South 2.0 mph 5.0 mph 93% 0.00 in
04:01 69.7 °F 67.6 °F 29.90 in South 4.0 mph 5.0 mph 93% 0.00 in
04:06 69.7 °F 67.6 °F 29.90 in SSW 4.0 mph 7.0 mph 93% 0.00 in
04:11 69.7 °F 67.6 °F 29.90 in SSW 1.0 mph 4.0 mph 93% 0.00 in
04:16 69.7 °F 67.6 °F 29.90 in SE 2.0 mph 3.0 mph 93% 0.00 in
04:21 69.7 °F 67.6 °F 29.90 in SSE 4.0 mph 6.0 mph 93% 0.00 in
04:26 69.7 °F 67.6 °F 29.90 in SSW 3.0 mph 6.0 mph 93% 0.00 in
04:31 69.8 °F 67.7 °F 29.90 in SSE 2.0 mph 8.0 mph 93% 0.00 in
04:36 69.8 °F 67.7 °F 29.90 in SSW 3.0 mph 4.0 mph 93% 0.00 in
04:41 69.8 °F 67.7 °F 29.90 in SSE 2.0 mph 5.0 mph 93% 0.00 in
04:46 69.8 °F 67.7 °F 29.90 in SSW 3.0 mph 4.0 mph 93% 0.00 in
04:51 69.8 °F 67.7 °F 29.90 in SW 3.0 mph 5.0 mph 93% 0.00 in
04:57 69.8 °F 67.7 °F 29.90 in SW 3.0 mph 5.0 mph 93% 0.00 in
05:02 69.9 °F 67.8 °F 29.90 in SSE 2.0 mph 5.0 mph 93% 0.00 in
05:07 69.8 °F 67.7 °F 29.90 in SSW 1.0 mph 3.0 mph 93% 0.00 in
05:12 69.9 °F 67.8 °F 29.90 in South 2.0 mph 3.0 mph 93% 0.17 in
05:17 69.8 °F 67.7 °F 29.91 in SSW 2.0 mph 6.0 mph 93% 0.07 in
05:22 69.9 °F 67.8 °F 29.90 in SE 2.0 mph 4.0 mph 93% 0.05 in
05:27 69.9 °F 67.8 °F 29.91 in SSE 3.0 mph 6.0 mph 93% 0.00 in
05:32 69.9 °F 67.8 °F 29.91 in South 2.0 mph 4.0 mph 93% 0.18 in
05:37 69.9 °F 67.8 °F 29.91 in South 4.0 mph 5.0 mph 93% 0.14 in
05:42 69.9 °F 67.8 °F 29.91 in SW 5.0 mph 7.0 mph 93% 0.07 in
05:47 69.9 °F 67.8 °F 29.91 in WSW 6.0 mph 7.0 mph 93% 0.04 in
05:52 69.9 °F 67.8 °F 29.91 in SW 7.0 mph 7.0 mph 93% 0.00 in
05:57 69.9 °F 67.8 °F 29.91 in SW 6.0 mph 6.0 mph 93% 0.00 in
06:02 69.9 °F 67.8 °F 29.91 in SSE 4.0 mph 5.0 mph 93% 0.00 in
06:07 69.9 °F 67.8 °F 29.91 in SSW 4.0 mph 7.0 mph 93% 0.00 in
06:12 69.9 °F 67.8 °F 29.92 in SSW 4.0 mph 5.0 mph 93% 0.00 in
06:17 69.9 °F 67.8 °F 29.92 in WSW 7.0 mph 7.0 mph 93% 0.00 in
06:22 70.0 °F 67.9 °F 29.92 in SW 4.0 mph 4.0 mph 93% 0.00 in
06:27 70.0 °F 67.9 °F 29.92 in SW 4.0 mph 6.0 mph 93% 0.00 in
06:32 70.0 °F 67.9 °F 29.92 in SSW 3.0 mph 5.0 mph 93% 0.00 in
06:37 70.0 °F 67.9 °F 29.92 in SW 2.0 mph 5.0 mph 93% 0.00 in
06:42 70.1 °F 68.0 °F 29.92 in SW 6.0 mph 6.0 mph 93% 0.00 in
06:47 70.1 °F 68.0 °F 29.92 in SW 1.0 mph 4.0 mph 93% 0.00 in
06:52 70.1 °F 68.0 °F 29.92 in SSW 4.0 mph 7.0 mph 93% 0.00 in
06:57 70.1 °F 68.0 °F 29.93 in SSW 3.0 mph 5.0 mph 93% 0.00 in
07:02 70.1 °F 68.0 °F 29.92 in SW 2.0 mph 4.0 mph 93% 0.00 in
07:07 70.1 °F 68.0 °F 29.93 in SSW 2.0 mph 5.0 mph 93% 0.00 in
07:12 70.2 °F 68.1 °F 29.93 in SW 3.0 mph 6.0 mph 93% 0.00 in
07:17 70.2 °F 68.1 °F 29.93 in South 3.0 mph 7.0 mph 93% 0.00 in
07:22 70.2 °F 68.1 °F 29.93 in SSW 3.0 mph 7.0 mph 93% 0.00 in
07:27 70.3 °F 68.2 °F 29.93 in SSW 4.0 mph 5.0 mph 93% 0.00 in
07:32 70.3 °F 68.2 °F 29.94 in SW 2.0 mph 7.0 mph 93% 0.00 in
07:37 70.3 °F 68.2 °F 29.94 in SW 5.0 mph 8.0 mph 93% 0.00 in
07:42 70.3 °F 68.2 °F 29.94 in SW 3.0 mph 6.0 mph 93% 0.00 in
07:47 70.4 °F 68.3 °F 29.94 in SW 3.0 mph 5.0 mph 93% 0.00 in
07:52 70.4 °F 68.3 °F 29.94 in SW 3.0 mph 4.0 mph 93% 0.00 in
07:57 70.4 °F 68.0 °F 29.94 in WSW 4.0 mph 6.0 mph 92% 0.00 in
08:02 70.5 °F 68.4 °F 29.94 in SW 8.0 mph 8.0 mph 93% 0.00 in
08:07 70.5 °F 68.4 °F 29.94 in West 4.0 mph 6.0 mph 93% 0.00 in
08:12 70.6 °F 68.5 °F 29.94 in SSW 3.0 mph 5.0 mph 93% 0.00 in
08:17 70.6 °F 68.5 °F 29.94 in WSW 3.0 mph 7.0 mph 93% 0.00 in
08:22 70.6 °F 68.5 °F 29.94 in SSW 3.0 mph 5.0 mph 93% 0.00 in
08:27 70.6 °F 68.5 °F 29.94 in SW 4.0 mph 6.0 mph 93% 0.00 in
08:32 70.6 °F 68.5 °F 29.94 in SW 4.0 mph 7.0 mph 93% 0.00 in
08:37 70.6 °F 68.5 °F 29.95 in SW 6.0 mph 7.0 mph 93% 0.00 in
08:42 70.7 °F 68.3 °F 29.95 in SW 5.0 mph 6.0 mph 92% 0.00 in
08:47 70.7 °F 68.6 °F 29.94 in SW 5.0 mph 8.0 mph 93% 0.00 in
08:52 70.7 °F 68.3 °F 29.95 in SW 2.0 mph 6.0 mph 92% 0.00 in
08:58 70.8 °F 68.4 °F 29.95 in SW 4.0 mph 7.0 mph 92% 0.00 in
09:03 71.0 °F 68.6 °F 29.95 in SW 2.0 mph 5.0 mph 92% 0.00 in
09:08 71.1 °F 68.7 °F 29.95 in SW 5.0 mph 6.0 mph 92% 0.00 in
09:13 71.1 °F 68.7 °F 29.95 in SW 6.0 mph 6.0 mph 92% 0.00 in
09:18 71.2 °F 68.8 °F 29.95 in SW 5.0 mph 5.0 mph 92% 0.00 in
09:23 71.2 °F 68.8 °F 29.95 in WSW 3.0 mph 6.0 mph 92% 0.00 in
09:28 71.2 °F 68.8 °F 29.95 in SSW 2.0 mph 5.0 mph 92% 0.00 in
09:33 71.3 °F 68.9 °F 29.95 in SSW 4.0 mph 6.0 mph 92% 0.00 in
09:38 71.4 °F 69.0 °F 29.95 in SW 5.0 mph 6.0 mph 92% 0.00 in
09:43 71.4 °F 69.0 °F 29.96 in SW 3.0 mph 5.0 mph 92% 0.00 in
09:48 71.5 °F 69.4 °F 29.95 in WSW 4.0 mph 7.0 mph 93% 0.00 in
09:53 71.6 °F 69.5 °F 29.95 in SW 4.0 mph 6.0 mph 93% 0.00 in
09:58 71.7 °F 69.6 °F 29.95 in WSW 7.0 mph 7.0 mph 93% 0.00 in
10:03 71.7 °F 69.3 °F 29.95 in WSW 2.0 mph 6.0 mph 92% 0.00 in
10:08 71.8 °F 69.7 °F 29.96 in SW 4.0 mph 6.0 mph 93% 0.00 in
10:13 71.9 °F 69.4 °F 29.95 in SW 3.0 mph 7.0 mph 92% 0.00 in
10:18 71.9 °F 69.8 °F 29.96 in SW 5.0 mph 8.0 mph 93% 0.00 in
10:23 72.0 °F 69.6 °F 29.96 in WSW 4.0 mph 9.0 mph 92% 0.00 in
10:28 72.1 °F 69.7 °F 29.96 in SW 1.0 mph 7.0 mph 92% 0.00 in
10:33 72.2 °F 69.8 °F 29.97 in SW 6.0 mph 6.0 mph 92% 0.00 in
10:38 72.4 °F 69.9 °F 29.96 in SW 3.0 mph 5.0 mph 92% 0.00 in
10:43 72.9 °F 70.4 °F 29.96 in SW 3.0 mph 5.0 mph 92% 0.00 in
10:48 73.5 °F 71.0 °F 29.96 in SW 3.0 mph 7.0 mph 92% 0.00 in
10:53 73.9 °F 71.4 °F 29.96 in WSW 2.0 mph 6.0 mph 92% 0.00 in
10:58 74.4 °F 71.9 °F 29.96 in SW 3.0 mph 6.0 mph 92% 0.00 in
11:03 75.2 °F 72.7 °F 29.96 in South 4.0 mph 7.0 mph 92% 0.00 in
11:08 75.7 °F 72.9 °F 29.96 in WSW 4.0 mph 7.0 mph 91% 0.00 in
11:13 75.8 °F 73.0 °F 29.96 in SW 7.0 mph 7.0 mph 91% 0.00 in
11:18 75.7 °F 72.6 °F 29.96 in SW 3.0 mph 8.0 mph 90% 0.00 in
11:23 75.7 °F 72.6 °F 29.96 in SW 5.0 mph 7.0 mph 90% 0.00 in
11:28 75.8 °F 72.7 °F 29.96 in SW 4.0 mph 7.0 mph 90% 0.00 in
11:33 75.9 °F 72.4 °F 29.96 in WSW 4.0 mph 6.0 mph 89% 0.00 in
11:38 76.1 °F 72.3 °F 29.96 in SW 5.0 mph 8.0 mph 88% 0.00 in
11:43 76.8 °F 73.0 °F 29.95 in WSW 6.0 mph 8.0 mph 88% 0.00 in
11:49 77.0 °F 72.8 °F 29.96 in WSW 5.0 mph 7.0 mph 87% 0.00 in
11:54 77.1 °F 73.3 °F 29.95 in SW 9.0 mph 9.0 mph 88% 0.00 in
11:59 77.0 °F 72.5 °F 29.95 in South 3.0 mph 7.0 mph 86% 0.00 in
12:04 77.3 °F 72.8 °F 29.95 in WSW 3.0 mph 7.0 mph 86% 0.00 in
12:09 77.5 °F 73.0 °F 29.95 in SW 1.0 mph 5.0 mph 86% 0.00 in
12:14 77.8 °F 73.3 °F 29.95 in SW 4.0 mph 6.0 mph 86% 0.00 in
12:19 77.9 °F 73.4 °F 29.95 in WSW 4.0 mph 8.0 mph 86% 0.00 in
12:24 77.6 °F 72.4 °F 29.95 in SW 4.0 mph 9.0 mph 84% 0.00 in
12:29 77.9 °F 73.0 °F 29.95 in WSW 10.0 mph 10.0 mph 85% 0.00 in
12:34 77.7 °F 72.5 °F 29.95 in SSW 6.0 mph 9.0 mph 84% 0.00 in
12:39 78.5 °F 73.3 °F 29.95 in SW 3.0 mph 5.0 mph 84% 0.00 in
12:44 79.3 °F 74.1 °F 29.95 in SSW 5.0 mph 8.0 mph 84% 0.00 in
12:49 79.5 °F 73.5 °F 29.95 in SW 4.0 mph 7.0 mph 82% 0.00 in
12:54 79.6 °F 73.3 °F 29.94 in SSW 6.0 mph 9.0 mph 81% 0.00 in
12:59 79.9 °F 73.2 °F 29.94 in SW 8.0 mph 9.0 mph 80% 0.00 in
13:04 79.6 °F 72.9 °F 29.94 in SW 7.0 mph 11.0 mph 80% 0.00 in
13:09 79.8 °F 73.1 °F 29.94 in SSE 2.0 mph 6.0 mph 80% 0.00 in
13:14 79.6 °F 72.9 °F 29.94 in WSW 4.0 mph 7.0 mph 80% 0.00 in
13:19 78.9 °F 72.9 °F 29.94 in SW 6.0 mph 11.0 mph 82% 0.00 in
13:24 78.5 °F 72.6 °F 29.94 in SSW 7.0 mph 10.0 mph 82% 0.00 in
13:29 78.3 °F 72.4 °F 29.94 in South 5.0 mph 8.0 mph 82% 0.00 in
13:34 78.4 °F 72.4 °F 29.94 in SW 4.0 mph 8.0 mph 82% 0.00 in
13:39 78.5 °F 72.6 °F 29.94 in SSE 5.0 mph 7.0 mph 82% 0.00 in
13:44 78.9 °F 74.0 °F 29.94 in SSE 5.0 mph 7.0 mph 85% 0.00 in
13:49 79.3 °F 73.7 °F 29.94 in SW 5.0 mph 5.0 mph 83% 0.00 in
13:54 79.4 °F 74.2 °F 29.94 in South 4.0 mph 7.0 mph 84% 0.00 in
13:59 79.6 °F 74.0 °F 29.94 in SW 7.0 mph 8.0 mph 83% 0.00 in
14:04 79.4 °F 73.8 °F 29.94 in SSW 5.0 mph 8.0 mph 83% 0.00 in
14:09 80.8 °F 74.8 °F 29.94 in South 2.0 mph 6.0 mph 82% 0.00 in
14:14 81.2 °F 74.1 °F 29.93 in SSW 7.0 mph 10.0 mph 79% 0.00 in
14:19 81.6 °F 74.8 °F 29.94 in SSE 6.0 mph 9.0 mph 80% 0.00 in
14:24 81.9 °F 74.0 °F 29.93 in SSW 5.0 mph 7.0 mph 77% 0.00 in
14:29 81.8 °F 73.1 °F 29.93 in West 3.0 mph 7.0 mph 75% 0.00 in
14:34 81.6 °F 74.5 °F 29.93 in SSW 4.0 mph 6.0 mph 79% 0.00 in
14:39 82.1 °F 74.9 °F 29.93 in SW 7.0 mph 8.0 mph 79% 0.00 in
14:44 82.2 °F 74.3 °F 29.93 in South 7.0 mph 11.0 mph 77% 0.00 in
14:49 81.9 °F 74.0 °F 29.93 in SSW 5.0 mph 7.0 mph 77% 0.00 in
14:54 81.5 °F 73.6 °F 29.94 in South 5.0 mph 6.0 mph 77% 0.00 in
14:59 81.0 °F 73.9 °F 29.94 in WSW 6.0 mph 8.0 mph 79% 0.00 in
15:04 80.7 °F 73.6 °F 29.94 in South 5.0 mph 9.0 mph 79% 0.00 in
15:09 80.8 °F 74.4 °F 29.94 in SW 4.0 mph 7.0 mph 81% 0.00 in
15:14 80.8 °F 74.4 °F 29.93 in SSW 4.0 mph 5.0 mph 81% 0.00 in
15:19 80.8 °F 74.4 °F 29.93 in SSW 3.0 mph 4.0 mph 81% 0.00 in
15:24 80.8 °F 74.1 °F 29.93 in SSW 5.0 mph 6.0 mph 80% 0.00 in
15:29 80.7 °F 73.6 °F 29.93 in SW 7.0 mph 7.0 mph 79% 0.00 in
15:34 81.0 °F 73.9 °F 29.93 in SSW 5.0 mph 9.0 mph 79% 0.00 in
15:39 81.0 °F 73.5 °F 29.93 in SSW 3.0 mph 9.0 mph 78% 0.00 in
15:44 81.3 °F 73.8 °F 29.93 in SW 5.0 mph 7.0 mph 78% 0.00 in
15:49 82.2 °F 73.9 °F 29.92 in WSW 7.0 mph 8.0 mph 76% 0.00 in
15:54 82.4 °F 74.1 °F 29.92 in SW 6.0 mph 7.0 mph 76% 0.00 in
15:59 82.4 °F 72.5 °F 29.91 in SW 9.0 mph 12.0 mph 72% 0.00 in
16:05 82.2 °F 72.7 °F 29.91 in WSW 6.0 mph 9.0 mph 73% 0.00 in
16:10 82.3 °F 72.4 °F 29.91 in SW 3.0 mph 11.0 mph 72% 0.00 in
16:15 82.7 °F 72.8 °F 29.90 in SW 6.0 mph 10.0 mph 72% 0.00 in
16:20 83.1 °F 73.6 °F 29.90 in SW 2.0 mph 7.0 mph 73% 0.00 in
16:25 83.5 °F 73.1 °F 29.90 in West 4.0 mph 6.0 mph 71% 0.00 in
16:30 83.4 °F 73.0 °F 29.90 in WNW 4.0 mph 7.0 mph 71% 0.00 in
16:35 83.1 °F 73.1 °F 29.89 in SW 5.0 mph 13.0 mph 72% 0.00 in
16:40 82.9 °F 73.8 °F 29.90 in WSW 8.0 mph 8.0 mph 74% 0.00 in
16:45 83.0 °F 74.3 °F 29.90 in SW 7.0 mph 9.0 mph 75% 0.00 in
16:50 82.7 °F 73.2 °F 29.90 in West 7.0 mph 11.0 mph 73% 0.00 in
16:55 82.8 °F 73.7 °F 29.90 in WSW 10.0 mph 10.0 mph 74% 0.00 in
17:00 82.8 °F 73.7 °F 29.90 in WSW 10.0 mph 12.0 mph 74% 0.00 in
17:05 82.9 °F 73.4 °F 29.91 in SW 9.0 mph 9.0 mph 73% 0.00 in
17:10 82.6 °F 73.5 °F 29.91 in WSW 8.0 mph 11.0 mph 74% 0.00 in
17:15 82.5 °F 74.2 °F 29.91 in SW 5.0 mph 8.0 mph 76% 0.00 in
17:20 82.4 °F 73.7 °F 29.91 in SW 7.0 mph 9.0 mph 75% 0.00 in
17:25 82.2 °F 73.5 °F 29.92 in SW 5.0 mph 10.0 mph 75% 0.00 in
17:30 82.1 °F 73.8 °F 29.92 in WSW 7.0 mph 9.0 mph 76% 0.00 in
17:35 82.2 °F 74.3 °F 29.92 in SW 6.0 mph 7.0 mph 77% 0.00 in
17:40 82.0 °F 73.7 °F 29.93 in SW 4.0 mph 9.0 mph 76% 0.00 in
17:45 82.5 °F 74.9 °F 29.93 in West 3.0 mph 6.0 mph 78% 0.00 in
17:50 83.1 °F 74.8 °F 29.92 in SW 5.0 mph 9.0 mph 76% 0.00 in
17:55 83.8 °F 75.0 °F 29.92 in WSW 3.0 mph 6.0 mph 75% 0.00 in
18:00 83.8 °F 74.6 °F 29.92 in SSW 6.0 mph 9.0 mph 74% 0.00 in
18:05 83.2 °F 73.2 °F 29.92 in SW 7.0 mph 10.0 mph 72% 0.00 in
18:10 82.8 °F 74.1 °F 29.92 in SW 6.0 mph 8.0 mph 75% 0.00 in
18:15 82.9 °F 74.6 °F 29.92 in SW 5.0 mph 6.0 mph 76% 0.00 in
18:20 83.2 °F 74.8 °F 29.92 in SW 8.0 mph 8.0 mph 76% 0.00 in
18:25 83.2 °F 74.8 °F 29.92 in SW 3.0 mph 7.0 mph 76% 0.00 in
18:30 83.0 °F 74.7 °F 29.92 in WSW 5.0 mph 8.0 mph 76% 0.00 in
18:35 82.4 °F 74.5 °F 29.92 in SSW 6.0 mph 8.0 mph 77% 0.00 in
18:40 82.0 °F 74.1 °F 29.92 in SW 6.0 mph 8.0 mph 77% 0.00 in
18:45 81.8 °F 74.7 °F 29.92 in SW 2.0 mph 5.0 mph 79% 0.00 in
18:50 81.7 °F 74.6 °F 29.91 in SW 3.0 mph 6.0 mph 79% 0.00 in
18:55 81.5 °F 74.7 °F 29.92 in SW 8.0 mph 8.0 mph 80% 0.00 in
19:00 79.7 °F 70.3 °F 29.94 in NNW 12.0 mph 38.0 mph 73% 0.00 in
19:05 76.2 °F 68.5 °F 29.95 in NW 14.0 mph 23.0 mph 77% 0.00 in
19:10 73.2 °F 67.7 °F 29.96 in WNW 10.0 mph 25.0 mph 83% 0.83 in
19:15 70.7 °F 67.3 °F 29.96 in WNW 10.0 mph 20.0 mph 89% 0.44 in
19:20 69.7 °F 67.0 °F 29.98 in NW 8.0 mph 20.0 mph 91% 0.11 in
19:26 69.2 °F 66.8 °F 29.98 in WNW 11.0 mph 18.0 mph 92% 0.06 in
19:31 69.0 °F 66.6 °F 29.97 in WNW 8.0 mph 15.0 mph 92% 0.04 in
19:36 68.9 °F 66.5 °F 29.97 in NW 9.0 mph 13.0 mph 92% 0.00 in
19:40 68.8 °F 66.4 °F 29.98 in WNW 9.0 mph 14.0 mph 92% 0.00 in
19:46 68.7 °F 66.3 °F 29.98 in WNW 5.0 mph 11.0 mph 92% 0.00 in
19:51 68.6 °F 66.5 °F 29.98 in WNW 6.0 mph 8.0 mph 93% 0.00 in
19:56 68.6 °F 66.5 °F 29.97 in NNW 4.0 mph 7.0 mph 93% 0.00 in
20:01 68.6 °F 66.5 °F 29.95 in NNW 3.0 mph 7.0 mph 93% 0.00 in
20:06 68.6 °F 66.5 °F 29.94 in NW 4.0 mph 7.0 mph 93% 0.00 in
20:11 68.6 °F 66.5 °F 29.95 in WNW 4.0 mph 4.0 mph 93% 0.00 in
20:16 68.6 °F 66.5 °F 29.96 in West 2.0 mph 4.0 mph 93% 0.00 in
20:21 68.6 °F 66.5 °F 29.96 in West 5.0 mph 5.0 mph 93% 0.00 in
20:26 68.5 °F 66.4 °F 29.96 in WSW 5.0 mph 6.0 mph 93% 0.00 in
20:31 68.5 °F 66.4 °F 29.95 in SW 8.0 mph 8.0 mph 93% 0.00 in
20:36 68.4 °F 66.3 °F 29.95 in WSW 4.0 mph 7.0 mph 93% 0.00 in
20:41 68.3 °F 66.2 °F 29.93 in SSW 3.0 mph 5.0 mph 93% 0.00 in
20:46 68.1 °F 66.0 °F 29.93 in WSW 2.0 mph 4.0 mph 93% 0.00 in
20:51 68.1 °F 66.0 °F 29.93 in SW 3.0 mph 5.0 mph 93% 0.00 in
20:56 68.0 °F 65.9 °F 29.93 in SW 4.0 mph 4.0 mph 93% 0.00 in
21:01 67.9 °F 65.8 °F 29.92 in WSW 5.0 mph 6.0 mph 93% 0.00 in
21:06 67.9 °F 65.8 °F 29.92 in South 2.0 mph 5.0 mph 93% 0.00 in
21:11 67.8 °F 65.7 °F 29.92 in SSE 3.0 mph 5.0 mph 93% 0.00 in
21:16 67.7 °F 65.6 °F 29.91 in SSE 4.0 mph 5.0 mph 93% 0.00 in
21:21 67.7 °F 65.6 °F 29.90 in SE 4.0 mph 6.0 mph 93% 0.00 in
21:26 67.7 °F 65.6 °F 29.91 in SSE 3.0 mph 4.0 mph 93% 0.00 in
21:31 67.7 °F 65.6 °F 29.90 in SSE 4.0 mph 6.0 mph 93% 0.00 in
21:36 67.7 °F 65.6 °F 29.89 in SSE 4.0 mph 6.0 mph 93% 0.00 in
21:41 67.7 °F 65.6 °F 29.89 in SE 4.0 mph 6.0 mph 93% 0.00 in
21:46 67.6 °F 65.5 °F 29.88 in SSE 2.0 mph 4.0 mph 93% 0.00 in
21:51 67.6 °F 65.5 °F 29.88 in SE 3.0 mph 6.0 mph 93% 0.00 in
21:56 67.5 °F 65.4 °F 29.87 in SE 6.0 mph 7.0 mph 93% 0.00 in
22:01 67.4 °F 65.3 °F 29.86 in SE 5.0 mph 6.0 mph 93% 0.00 in
22:06 67.4 °F 65.3 °F 29.85 in SSE 4.0 mph 7.0 mph 93% 0.00 in
22:11 67.3 °F 65.2 °F 29.84 in South 6.0 mph 6.0 mph 93% 0.00 in
22:16 67.3 °F 65.2 °F 29.84 in ESE 4.0 mph 6.0 mph 93% 0.00 in
22:21 67.3 °F 65.2 °F 29.83 in SE 6.0 mph 6.0 mph 93% 0.00 in
22:26 67.2 °F 65.1 °F 29.83 in SSE 5.0 mph 7.0 mph 93% 0.00 in
22:32 67.2 °F 65.1 °F 29.83 in SE 6.0 mph 7.0 mph 93% 0.00 in
22:37 67.1 °F 65.0 °F 29.83 in SE 6.0 mph 7.0 mph 93% 0.00 in
22:42 67.1 °F 65.0 °F 29.84 in Calm   3.0 mph 93% 0.00 in
22:47 67.0 °F 64.9 °F 29.84 in ESE 2.0 mph 2.0 mph 93% 0.00 in
22:52 67.0 °F 64.9 °F 29.85 in North 1.0 mph 1.0 mph 93% 0.00 in
22:57 66.9 °F 64.8 °F 29.84 in Calm   1.0 mph 93% 0.00 in
23:02 66.9 °F 64.8 °F 29.84 in Calm   2.0 mph 93% 0.00 in
23:07 66.9 °F 64.8 °F 29.85 in North 2.0 mph 3.0 mph 93% 0.00 in
23:12 66.9 °F 64.8 °F 29.86 in NNW 2.0 mph 5.0 mph 93% 0.00 in
23:17 66.9 °F 64.8 °F 29.85 in NNW 3.0 mph 5.0 mph 93% 0.00 in
23:22 66.9 °F 64.8 °F 29.85 in NNW 3.0 mph 6.0 mph 93% 0.00 in
23:27 66.9 °F 64.8 °F 29.86 in NNW 3.0 mph 7.0 mph 93% 0.00 in
23:32 66.9 °F 64.8 °F 29.86 in NNW 1.0 mph 4.0 mph 93% 0.00 in
23:37 66.8 °F 64.7 °F 29.87 in NNW 3.0 mph 5.0 mph 93% 0.00 in
23:42 66.8 °F 64.7 °F 29.87 in NNW 1.0 mph 3.0 mph 93% 0.00 in
23:47 66.7 °F 64.6 °F 29.87 in NE 2.0 mph 2.0 mph 93% 0.00 in
23:52 66.7 °F 64.6 °F 29.87 in NNE 1.0 mph 4.0 mph 93% 0.00 in
23:57 66.6 °F 64.5 °F 29.87 in NNE 1.0 mph 1.0 mph 93% 0.00 in
Compliments of Weather Underground